ProjectID,Date,Electric Generation,Electric Utility Import,Facility Electric Load
,YYYY-MM-DD,kW,kW,kW
153,2013-11-01,0.0,,0.0
153,2013-11-02,0.0,,0.0
153,2013-11-03,0.0,,0.0
153,2013-11-04,0.0,,0.0
153,2013-11-05,0.0,,0.0
153,2013-11-06,0.0,,0.0
153,2013-11-07,0.0,,0.0
153,2013-11-08,0.0,,0.0
153,2013-11-09,0.0,,0.0
153,2013-11-10,0.0,,0.0
153,2013-11-11,0.0,,0.0
153,2013-11-12,0.0,,0.0
153,2013-11-13,0.0,,0.0
153,2013-11-14,0.0,,0.0
153,2013-11-15,0.0,,0.0
153,2013-11-16,0.0,,0.0
153,2013-11-17,0.0,,0.0
153,2013-11-18,0.0,,0.0
153,2013-11-19,0.0,,0.0
153,2013-11-20,0.0,,0.0
153,2013-11-21,0.0,,0.0
153,2013-11-22,0.0,,0.0
153,2013-11-23,0.0,,0.0
153,2013-11-24,0.0,,0.0
153,2013-11-25,0.0,,0.0
153,2013-11-26,0.0,,0.0
153,2013-11-27,5.753333333333333,,5.753333333333333
153,2013-11-28,70.07333333333332,,70.07333333333332
153,2013-11-29,57.24,,57.24
153,2013-11-30,46.31999999999999,,46.31999999999999
153,2013-12-01,0.0,,0.0
153,2013-12-02,30.793333333333333,,30.793333333333333
153,2013-12-03,48.64666666666667,,48.64666666666667
153,2013-12-04,32.51333333333333,,32.51333333333333
153,2013-12-05,0.0,,0.0
153,2013-12-06,0.0,,0.0
153,2013-12-07,0.0,,0.0
153,2013-12-08,0.0,,0.0
153,2013-12-09,1.4733333333333334,,1.4733333333333334
153,2013-12-10,0.7200000000000001,,0.7200000000000001
153,2013-12-11,16.94,,16.94
153,2013-12-12,32.62670833333333,,32.62670833333333
153,2013-12-13,47.853375,,47.853375
153,2013-12-14,7.6400000000000015,,7.6400000000000015
153,2013-12-15,37.093291666666666,,37.093291666666666
153,2013-12-16,53.41333333333333,,53.41333333333333
153,2013-12-17,1.7466666666666664,,1.7466666666666664
153,2013-12-18,39.47333333333333,,39.47333333333333
153,2013-12-19,49.300000000000004,,49.300000000000004
153,2013-12-20,38.48666666666667,,38.48666666666667
153,2013-12-21,44.13333333333333,,44.13333333333333
153,2013-12-22,16.826666666666668,,16.826666666666668
153,2013-12-23,4.780083333333333,,4.780083333333333
153,2013-12-24,51.13995833333333,,51.13995833333333
153,2013-12-25,56.07333333333332,,56.07333333333332
153,2013-12-26,31.200041666666674,,31.200041666666674
153,2013-12-27,49.826666666666675,,49.826666666666675
153,2013-12-28,49.25333333333334,,49.25333333333334
153,2013-12-29,5.293333333333334,,5.293333333333334
153,2013-12-30,16.846666666666668,,16.846666666666668
153,2013-12-31,35.006708333333336,,35.006708333333336
153,2014-01-01,35.61995833333334,,35.61995833333334
153,2014-01-02,2.9933333333333336,,2.9933333333333336
153,2014-01-03,63.78662500000001,,63.78662500000001
153,2014-01-04,66.553375,,66.553375
153,2014-01-05,9.173333333333334,,9.173333333333334
153,2014-01-06,13.040041666666667,,13.040041666666667
153,2014-01-07,70.72004166666667,,70.72004166666667
153,2014-01-08,63.933375000000005,,63.933375000000005
153,2014-01-09,67.02662500000001,,67.02662500000001
153,2014-01-10,9.779916666666667,,9.779916666666667
153,2014-01-11,10.166666666666666,,10.166666666666666
153,2014-01-12,26.15329166666667,,26.15329166666667
153,2014-01-13,52.22675000000001,,52.22675000000001
153,2014-01-14,4.8133333333333335,,4.8133333333333335
153,2014-01-15,50.306625,,50.306625
153,2014-01-16,18.186666666666664,,18.186666666666664
153,2014-01-17,66.33999999999999,,66.33999999999999
153,2014-01-18,15.459916666666667,,15.459916666666667
153,2014-01-19,49.046708333333335,,49.046708333333335
153,2014-01-20,28.186666666666667,,28.186666666666667
153,2014-01-21,8.833333333333334,,8.833333333333334
153,2014-01-22,80.92679166666666,,80.92679166666666
153,2014-01-23,78.46662500000001,,78.46662500000001
153,2014-01-24,82.18670833333334,,82.18670833333334
153,2014-01-25,26.973291666666665,,26.973291666666665
153,2014-01-26,56.01304166666667,,56.01304166666667
153,2014-01-27,44.76675,,44.76675
153,2014-01-28,55.06704166666666,,55.06704166666666
153,2014-01-29,76.76712500000001,,76.76712500000001
153,2014-01-30,84.68670833333333,,84.68670833333333
153,2014-01-31,42.83333333333334,,42.83333333333334
153,2014-02-01,58.099916666666665,,58.099916666666665
153,2014-02-02,51.252958333333346,,51.252958333333346
153,2014-02-03,0.0,,0.0
153,2014-02-04,0.10008333333333334,,0.10008333333333334
153,2014-02-05,0.0,,0.0
153,2014-02-06,0.16058333333333333,,0.16058333333333333
153,2014-02-07,0.19345833333333337,,0.19345833333333337
153,2014-02-08,0.08570833333333333,,0.08570833333333333
153,2014-02-09,0.08625000000000001,,0.08625000000000001
153,2014-02-10,0.21354166666666666,,0.21354166666666666
153,2014-02-11,0.25195833333333334,,0.25195833333333334
153,2014-02-12,0.17995833333333336,,0.17995833333333336
153,2014-02-13,0.0,,0.0
153,2014-02-14,0.8800833333333333,,0.8800833333333333
153,2014-02-15,0.11379166666666667,,0.11379166666666667
153,2014-02-16,2.0537083333333332,,2.0537083333333332
153,2014-02-17,3.1537916666666668,,3.1537916666666668
153,2014-02-18,0.9129166666666667,,0.9129166666666667
153,2014-02-19,2.367,,2.367
153,2014-02-20,29.16666666666666,,29.16666666666666
153,2014-02-21,14.646291666666668,,14.646291666666668
153,2014-02-22,103.38625,,103.38625
153,2014-02-23,92.25291666666668,,92.25291666666668
153,2014-02-24,105.61312500000001,,105.61312500000001
153,2014-02-25,60.47333333333333,,60.47333333333333
153,2014-02-26,57.85970833333332,,57.85970833333332
153,2014-02-27,74.66666666666666,,74.66666666666666
153,2014-02-28,119.85354166666669,,119.85354166666669
153,2014-03-01,100.91308333333336,,100.91308333333336
153,2014-03-02,21.626625,,21.626625
153,2014-03-03,33.333666666666666,,33.333666666666666
153,2014-03-04,82.10025,,82.10025
153,2014-03-05,95.62041666666666,,95.62041666666666
153,2014-03-06,116.09374999999999,,116.09374999999999
153,2014-03-07,45.91375,,45.91375
153,2014-03-08,110.04654166666666,,110.04654166666666
153,2014-03-09,117.46000000000002,,117.46000000000002
153,2014-03-10,59.153333333333336,,59.153333333333336
153,2014-03-11,93.94041666666665,,93.94041666666665
153,2014-03-12,39.239583333333336,,39.239583333333336
153,2014-03-13,122.37366666666667,,122.37366666666667
153,2014-03-14,88.85337500000001,,88.85337500000001
153,2014-03-15,105.78000000000002,,105.78000000000002
153,2014-03-16,104.96666666666668,,104.96666666666668
153,2014-03-17,68.54,,68.54
153,2014-03-18,132.25333333333336,,132.25333333333336
153,2014-03-19,52.606666666666676,,52.606666666666676
153,2014-03-20,100.62041666666669,,100.62041666666669
153,2014-03-21,138.58666666666664,,138.58666666666664
153,2014-03-22,99.49333333333333,,99.49333333333333
153,2014-03-23,62.91333333333333,,62.91333333333333
153,2014-03-24,120.69999999999999,,120.69999999999999
153,2014-03-25,88.67333333333335,,88.67333333333335
153,2014-03-26,85.17333333333335,,85.17333333333335
153,2014-03-27,125.88083333333334,,125.88083333333334
153,2014-03-28,28.666666666666668,,28.666666666666668
153,2014-03-29,19.77958333333333,,19.77958333333333
153,2014-03-30,25.14708333333333,,25.14708333333333
153,2014-03-31,81.52541666666666,,81.52541666666666
153,2014-04-01,124.62000000000002,,124.62000000000002
153,2014-04-02,45.560833333333335,,45.560833333333335
153,2014-04-03,127.24,,127.24
153,2014-04-04,17.87375,,17.87375
153,2014-04-05,109.18708333333332,,109.18708333333332
153,2014-04-06,151.22666666666666,,151.22666666666666
153,2014-04-07,51.881250000000016,,51.881250000000016
153,2014-04-08,85.63375,,85.63375
153,2014-04-09,105.33958333333334,,105.33958333333334
153,2014-04-10,132.22041666666667,,132.22041666666667
153,2014-04-11,101.60666666666667,,101.60666666666667
153,2014-04-12,141.63958333333332,,141.63958333333332
153,2014-04-13,127.54708333333332,,127.54708333333332
153,2014-04-14,128.44,,128.44
153,2014-04-15,20.352500000000003,,20.352500000000003
153,2014-04-16,76.27333333333334,,76.27333333333334
153,2014-04-17,132.4333333333333,,132.4333333333333
153,2014-04-18,116.14625000000001,,116.14625000000001
153,2014-04-19,127.62666666666667,,127.62666666666667
153,2014-04-20,118.42624999999998,,118.42624999999998
153,2014-04-21,139.97375,,139.97375
153,2014-04-22,115.42083333333335,,115.42083333333335
153,2014-04-23,86.10041666666666,,86.10041666666666
153,2014-04-24,91.56041666666668,,91.56041666666668
153,2014-04-25,139.39333333333335,,139.39333333333335
153,2014-04-26,57.1,,57.1
153,2014-04-27,89.16583333333331,,89.16583333333331
153,2014-04-28,149.80625,,149.80625
153,2014-04-29,34.01375,,34.01375
153,2014-04-30,12.686666666666666,,12.686666666666666
153,2014-05-01,112.95291666666668,,112.95291666666668
153,2014-05-02,109.51375000000002,,109.51375000000002
153,2014-05-03,90.73333333333333,,90.73333333333333
153,2014-05-04,96.34708333333334,,96.34708333333334
153,2014-05-05,102.28041666666665,,102.28041666666665
153,2014-05-06,105.56624999999998,,105.56624999999998
153,2014-05-07,149.26083333333335,,149.26083333333335
153,2014-05-08,30.526250000000005,,30.526250000000005
153,2014-05-09,40.29958333333333,,40.29958333333333
153,2014-05-10,91.08708333333333,,91.08708333333333
153,2014-05-11,166.83333333333337,,166.83333333333337
153,2014-05-12,113.42000000000003,,113.42000000000003
153,2014-05-13,143.42625,,143.42625
153,2014-05-14,88.86625,,88.86625
153,2014-05-15,68.43291666666666,,68.43291666666666
153,2014-05-16,41.49999999999999,,41.49999999999999
153,2014-05-17,112.83791666666667,,112.83791666666667
153,2014-05-18,113.14875,,113.14875
153,2014-05-19,132.45958333333334,,132.45958333333334
153,2014-05-20,106.37374999999999,,106.37374999999999
153,2014-05-21,96.92083333333333,,96.92083333333333
153,2014-05-22,45.44583333333333,,45.44583333333333
153,2014-05-23,71.05999999999999,,71.05999999999999
153,2014-05-24,80.85291666666667,,80.85291666666667
153,2014-05-25,161.8725,,161.8725
153,2014-05-26,140.14000000000001,,140.14000000000001
153,2014-05-27,105.41291666666666,,105.41291666666666
153,2014-05-28,37.37375,,37.37375
153,2014-05-29,126.44791666666664,,126.44791666666664
153,2014-05-30,140.42416666666665,,140.42416666666665
153,2014-05-31,129.32041666666666,,129.32041666666666
153,2014-06-01,151.74583333333334,,151.74583333333334
153,2014-06-02,166.86249999999998,,166.86249999999998
153,2014-06-03,146.81291666666667,,146.81291666666667
153,2014-06-04,128.03416666666666,,128.03416666666666
153,2014-06-05,89.87374999999999,,89.87374999999999
153,2014-06-06,129.29375000000002,,129.29375000000002
153,2014-06-07,171.33333333333334,,171.33333333333334
153,2014-06-08,151.41416666666666,,151.41416666666666
153,2014-06-09,39.19375,,39.19375
153,2014-06-10,86.03208333333333,,86.03208333333333
153,2014-06-11,53.56,,53.56
153,2014-06-12,41.81375,,41.81375
153,2014-06-13,99.93916666666667,,99.93916666666667
153,2014-06-14,102.64833333333333,,102.64833333333333
153,2014-06-15,151.14083333333332,,151.14083333333332
153,2014-06-16,167.95291666666665,,167.95291666666665
153,2014-06-17,145.93374999999997,,145.93374999999997
153,2014-06-18,165.76666666666662,,165.76666666666662
153,2014-06-19,81.21333333333332,,81.21333333333332
153,2014-06-20,147.46124999999998,,147.46124999999998
153,2014-06-21,154.55208333333331,,154.55208333333331
153,2014-06-22,152.70583333333335,,152.70583333333335
153,2014-06-23,157.55958333333334,,157.55958333333334
153,2014-06-24,124.64625000000001,,124.64625000000001
153,2014-06-25,119.86708333333333,,119.86708333333333
153,2014-06-26,129.17958333333334,,129.17958333333334
153,2014-06-27,145.53375,,145.53375
153,2014-06-28,158.23958333333334,,158.23958333333334
153,2014-06-29,167.46,,167.46
153,2014-06-30,153.28625,,153.28625
153,2014-07-01,130.21375,,130.21375
153,2014-07-02,146.8204166666667,,146.8204166666667
153,2014-07-03,143.29291666666666,,143.29291666666666
153,2014-07-04,61.49333333333332,,61.49333333333332
153,2014-07-05,130.32083333333335,,130.32083333333335
153,2014-07-06,171.17999999999998,,171.17999999999998
153,2014-07-07,158.79958333333335,,158.79958333333335
153,2014-07-08,144.61958333333334,,144.61958333333334
153,2014-07-09,124.16000000000001,,124.16000000000001
153,2014-07-10,130.06791666666666,,130.06791666666666
153,2014-07-11,143.46,,143.46
153,2014-07-12,162.98166666666668,,162.98166666666668
153,2014-07-13,106.0,,106.0
153,2014-07-14,85.74583333333334,,85.74583333333334
153,2014-07-15,64.75999999999998,,64.75999999999998
153,2014-07-16,114.30708333333335,,114.30708333333335
153,2014-07-17,120.37291666666665,,120.37291666666665
153,2014-07-18,149.74583333333337,,149.74583333333337
153,2014-07-19,88.95333333333336,,88.95333333333336
153,2014-07-20,103.19875000000002,,103.19875000000002
153,2014-07-21,142.95333333333332,,142.95333333333332
153,2014-07-22,135.83333333333334,,135.83333333333334
153,2014-07-23,141.22625000000002,,141.22625000000002
153,2014-07-24,97.91666666666669,,97.91666666666669
153,2014-07-25,153.58583333333334,,153.58583333333334
153,2014-07-26,91.07291666666667,,91.07291666666667
153,2014-07-27,92.57916666666667,,92.57916666666667
153,2014-07-28,117.8266666666667,,117.8266666666667
153,2014-07-29,130.8058333333333,,130.8058333333333
153,2014-07-30,140.31875,,140.31875
153,2014-07-31,121.64708333333334,,121.64708333333334
153,2014-08-01,91.76041666666667,,91.76041666666667
153,2014-08-02,98.98041666666667,,98.98041666666667
153,2014-08-03,80.84500000000001,,80.84500000000001
153,2014-08-04,135.72666666666666,,135.72666666666666
153,2014-08-05,146.54708333333332,,146.54708333333332
153,2014-08-06,108.77333333333331,,108.77333333333331
153,2014-08-07,137.6654166666667,,137.6654166666667
153,2014-08-08,141.6875,,141.6875
153,2014-08-09,136.0929166666667,,136.0929166666667
153,2014-08-10,142.61458333333334,,142.61458333333334
153,2014-08-11,132.98708333333335,,132.98708333333335
153,2014-08-12,53.02833333333334,,53.02833333333334
153,2014-08-13,71.97375,,71.97375
153,2014-08-14,141.04416666666665,,141.04416666666665
153,2014-08-15,97.11000000000001,,97.11000000000001
153,2014-08-16,131.33875,,131.33875
153,2014-08-17,101.06750000000001,,101.06750000000001
153,2014-08-18,146.00791666666666,,146.00791666666666
153,2014-08-19,111.02625,,111.02625
153,2014-08-20,135.60125,,135.60125
153,2014-08-21,109.92166666666667,,109.92166666666667
153,2014-08-22,45.19249999999999,,45.19249999999999
153,2014-08-23,37.88,,37.88
153,2014-08-24,123.03916666666667,,123.03916666666667
153,2014-08-25,138.40916666666666,,138.40916666666666
153,2014-08-26,135.57291666666666,,135.57291666666666
153,2014-08-27,133.15875000000003,,133.15875000000003
153,2014-08-28,142.08083333333335,,142.08083333333335
153,2014-08-29,137.71375,,137.71375
153,2014-08-30,96.95833333333333,,96.95833333333333
153,2014-08-31,88.21583333333335,,88.21583333333335
153,2014-09-01,86.58833333333332,,86.58833333333332
153,2014-09-02,113.23375,,113.23375
153,2014-09-03,119.18,,119.18
153,2014-09-04,126.59875,,126.59875
153,2014-09-05,105.29916666666666,,105.29916666666666
153,2014-09-06,81.13541666666667,,81.13541666666667
153,2014-09-07,129.28125,,129.28125
153,2014-09-08,81.17208333333333,,81.17208333333333
153,2014-09-09,58.45291666666665,,58.45291666666665
153,2014-09-10,120.39333333333333,,120.39333333333333
153,2014-09-11,55.614583333333336,,55.614583333333336
153,2014-09-12,122.76583333333333,,122.76583333333333
153,2014-09-13,29.328333333333337,,29.328333333333337
153,2014-09-14,124.70041666666667,,124.70041666666667
153,2014-09-15,127.04708333333333,,127.04708333333333
153,2014-09-16,59.91208333333335,,59.91208333333335
153,2014-09-17,126.79958333333333,,126.79958333333333
153,2014-09-18,106.23416666666667,,106.23416666666667
153,2014-09-19,104.40083333333332,,104.40083333333332
153,2014-09-20,109.14583333333336,,109.14583333333336
153,2014-09-21,48.96625,,48.96625
153,2014-09-22,97.45583333333333,,97.45583333333333
153,2014-09-23,120.17958333333333,,120.17958333333333
153,2014-09-24,74.39291666666666,,74.39291666666666
153,2014-09-25,36.1875,,36.1875
153,2014-09-26,116.28125,,116.28125
153,2014-09-27,114.93208333333332,,114.93208333333332
153,2014-09-28,98.13291666666667,,98.13291666666667
153,2014-09-29,48.08875,,48.08875
153,2014-09-30,29.674166666666668,,29.674166666666668
153,2014-10-01,14.239583333333334,,14.239583333333334
153,2014-10-02,38.44541666666667,,38.44541666666667
153,2014-10-03,108.10666666666667,,108.10666666666667
153,2014-10-04,33.784166666666664,,33.784166666666664
153,2014-10-05,118.01291666666667,,118.01291666666667
153,2014-10-06,110.25291666666668,,110.25291666666668
153,2014-10-07,59.91416666666667,,59.91416666666667
153,2014-10-08,101.08875,,101.08875
153,2014-10-09,85.67166666666667,,85.67166666666667
153,2014-10-10,59.88833333333334,,59.88833333333334
153,2014-10-11,15.067916666666667,,15.067916666666667
153,2014-10-12,105.7425,,105.7425
153,2014-10-13,28.555000000000003,,28.555000000000003
153,2014-10-14,95.6275,,95.6275
153,2014-10-15,64.44041666666668,,64.44041666666668
153,2014-10-16,70.04625,,70.04625
153,2014-10-17,93.86708333333333,,93.86708333333333
153,2014-10-18,51.299583333333324,,51.299583333333324
153,2014-10-19,83.73166666666667,,83.73166666666667
153,2014-10-20,81.8125,,81.8125
153,2014-10-21,64.39333333333333,,64.39333333333333
153,2014-10-22,10.572916666666666,,10.572916666666666
153,2014-10-23,20.085833333333333,,20.085833333333333
153,2014-10-24,57.00541666666667,,57.00541666666667
153,2014-10-25,89.17958333333333,,89.17958333333333
153,2014-10-26,70.57791666666667,,70.57791666666667
153,2014-10-27,92.32541666666667,,92.32541666666667
153,2014-10-28,67.82041666666667,,67.82041666666667
153,2014-10-29,49.828333333333326,,49.828333333333326
153,2014-10-30,78.84124999999999,,78.84124999999999
153,2014-10-31,29.90625,,29.90625
153,2014-11-01,6.0129166666666665,,6.0129166666666665
153,2014-11-02,65.33333333333333,,65.33333333333333
153,2014-11-03,83.15375,,83.15375
153,2014-11-04,73.78625,,73.78625
153,2014-11-05,25.458333333333332,,25.458333333333332
153,2014-11-06,4.84125,,4.84125
153,2014-11-07,46.29416666666666,,46.29416666666666
153,2014-11-08,74.89333333333333,,74.89333333333333
153,2014-11-09,51.22125,,51.22125
153,2014-11-10,74.00791666666667,,74.00791666666667
153,2014-11-11,53.94541666666667,,53.94541666666667
153,2014-11-12,25.064999999999998,,25.064999999999998
153,2014-11-13,43.66166666666667,,43.66166666666667
153,2014-11-14,78.24708333333334,,78.24708333333334
153,2014-11-15,77.03375,,77.03375
153,2014-11-16,16.65875,,16.65875
153,2014-11-17,5.333749999999999,,5.333749999999999
153,2014-11-18,78.76833333333333,,78.76833333333333
153,2014-11-19,75.47916666666667,,75.47916666666667
153,2014-11-20,51.57833333333334,,51.57833333333334
153,2014-11-21,73.23958333333334,,73.23958333333334
153,2014-11-22,66.25541666666666,,66.25541666666666
153,2014-11-23,56.302083333333336,,56.302083333333336
153,2014-11-24,34.50749999999999,,34.50749999999999
153,2014-11-25,21.273333333333333,,21.273333333333333
153,2014-11-26,3.299583333333333,,3.299583333333333
153,2014-11-27,17.84625,,17.84625
153,2014-11-28,48.41916666666666,,48.41916666666666
153,2014-11-29,27.546666666666663,,27.546666666666663
153,2014-11-30,36.9925,,36.9925
153,2014-12-01,30.02625,,30.02625
153,2014-12-02,12.15875,,12.15875
153,2014-12-03,8.68,,8.68
153,2014-12-04,56.973749999999995,,56.973749999999995
153,2014-12-05,17.91375,,17.91375
153,2014-12-06,4.838333333333334,,4.838333333333334
153,2014-12-07,64.51291666666667,,64.51291666666667
153,2014-12-08,21.273333333333333,,21.273333333333333
153,2014-12-09,2.5758333333333336,,2.5758333333333336
153,2014-12-10,15.385416666666666,,15.385416666666666
153,2014-12-11,36.22125,,36.22125
153,2014-12-12,40.106666666666676,,40.106666666666676
153,2014-12-13,56.83333333333334,,56.83333333333334
153,2014-12-14,30.893333333333334,,30.893333333333334
153,2014-12-15,58.04708333333334,,58.04708333333334
153,2014-12-16,22.239583333333332,,22.239583333333332
153,2014-12-17,16.672083333333333,,16.672083333333333
153,2014-12-18,45.427083333333336,,45.427083333333336
153,2014-12-19,43.71875,,43.71875
153,2014-12-20,11.914166666666667,,11.914166666666667
153,2014-12-21,14.185,,14.185
153,2014-12-22,10.465833333333334,,10.465833333333334
153,2014-12-23,9.59375,,9.59375
153,2014-12-24,4.708333333333333,,4.708333333333333
153,2014-12-25,33.91916666666667,,33.91916666666667
153,2014-12-26,60.46083333333333,,60.46083333333333
153,2014-12-27,55.51791666666667,,55.51791666666667
153,2014-12-28,19.760416666666668,,19.760416666666668
153,2014-12-29,47.307500000000005,,47.307500000000005
153,2014-12-30,35.28666666666667,,35.28666666666667
153,2014-12-31,51.41416666666667,,51.41416666666667
153,2015-01-01,63.34625,,63.34625
153,2015-01-02,54.56791666666667,,54.56791666666667
153,2015-01-03,12.041666666666666,,12.041666666666666
153,2015-01-04,9.3125,,9.3125
153,2015-01-05,61.28125000000001,,61.28125000000001
153,2015-01-06,3.487083333333333,,3.487083333333333
153,2015-01-07,52.09916666666666,,52.09916666666666
153,2015-01-08,67.47125,,67.47125
153,2015-01-09,40.598749999999995,,40.598749999999995
153,2015-01-10,70.58041666666666,,70.58041666666666
153,2015-01-11,49.5,,49.5
153,2015-01-12,5.385416666666668,,5.385416666666668
153,2015-01-13,71.08083333333333,,71.08083333333333
153,2015-01-14,39.020833333333336,,39.020833333333336
153,2015-01-15,55.965833333333336,,55.965833333333336
153,2015-01-16,56.153333333333336,,56.153333333333336
153,2015-01-17,70.36749999999999,,70.36749999999999
153,2015-01-18,2.731666666666667,,2.731666666666667
153,2015-01-19,39.252916666666664,,39.252916666666664
153,2015-01-20,46.04666666666666,,46.04666666666666
153,2015-01-21,41.14041666666667,,41.14041666666667
153,2015-01-22,46.58041666666667,,46.58041666666667
153,2015-01-23,70.79416666666665,,70.79416666666665
153,2015-01-24,0.21375000000000002,,0.21375000000000002
153,2015-01-25,52.89833333333333,,52.89833333333333
153,2015-01-26,16.502916666666668,,16.502916666666668
153,2015-01-27,36.07291666666667,,36.07291666666667
153,2015-01-28,81.22666666666667,,81.22666666666667
153,2015-01-29,56.260416666666664,,56.260416666666664
153,2015-01-30,29.94791666666666,,29.94791666666666
153,2015-01-31,88.7475,,88.7475
153,2015-02-01,43.44,,43.44
153,2015-02-02,1.3595833333333331,,1.3595833333333331
153,2015-02-03,16.205833333333334,,16.205833333333334
153,2015-02-04,11.5675,,11.5675
153,2015-02-05,30.28125,,30.28125
153,2015-02-06,37.34875,,37.34875
153,2015-02-07,20.487083333333334,,20.487083333333334
153,2015-02-08,30.471666666666675,,30.471666666666675
153,2015-02-09,8.573333333333332,,8.573333333333332
153,2015-02-10,48.495000000000005,,48.495000000000005
153,2015-02-11,94.20583333333333,,94.20583333333333
153,2015-02-12,43.182500000000005,,43.182500000000005
153,2015-02-13,102.42708333333333,,102.42708333333333
153,2015-02-14,19.739583333333332,,19.739583333333332
153,2015-02-15,91.125,,91.125
153,2015-02-16,89.71875,,89.71875
153,2015-02-17,20.994583333333335,,20.994583333333335
153,2015-02-18,56.447916666666664,,56.447916666666664
153,2015-02-19,76.01041666666667,,76.01041666666667
153,2015-02-20,110.60666666666667,,110.60666666666667
153,2015-02-21,32.315000000000005,,32.315000000000005
153,2015-02-22,13.067916666666667,,13.067916666666667
153,2015-02-23,43.435,,43.435
153,2015-02-24,85.02625,,85.02625
153,2015-02-25,106.08083333333333,,106.08083333333333
153,2015-02-26,60.729583333333345,,60.729583333333345
153,2015-02-27,112.8125,,112.8125
153,2015-02-28,114.61208333333333,,114.61208333333333
153,2015-03-01,20.333333333333332,,20.333333333333332
153,2015-03-02,8.325416666666667,,8.325416666666667
153,2015-03-03,11.065416666666666,,11.065416666666666
153,2015-03-04,33.59375,,33.59375
153,2015-03-05,1.5883333333333332,,1.5883333333333332
153,2015-03-06,84.14583333333333,,84.14583333333333